Regional Weather Roundup
Issued by NWS

Home | Current Version | Previous Version | Graphics & Text | Print | Product List | Glossary Off
Versions: 1 2 3 4 5 6 7 8 9 10 11 12 13 14 15 16 17 18 19 20 21 22 23 24 25 26 27 28 29 30 31 32 33 34 35 36 37 38 39 40 41 42 43 44 45 46 47 48 49 50

980
ASUS43 KDTX 111110
RWRMI
MICHIGAN HOURLY REGIONAL WEATHER ROUNDUP
NATIONAL WEATHER SERVICE DETROIT/PONTIAC MI
600 AM EST THU FEB 11 2016

NOTE: "FAIR" INDICATES FEW OR NO CLOUDS BELOW 12,000 FEET WITH NO
SIGNIFICANT WEATHER AND/OR OBSTRUCTION TO VISIBILITY.

MIZ047>049-052>055-059>063-066>070-074>076-081>083-111200-
SOUTHEAST LOWER MICHIGAN

CITY           SKY/WX    TMP DP  RH WIND       PRES   REMARKS
ADRIAN         CLOUDY    14   5  67 NW6       30.12R WCI   5
ALMA           CLEAR     11   7  83 W8        30.10R WCI  -1
ANN ARBOR      CLOUDY    12   4  70 NW8       30.10R WCI   0
BAD AXE        CLOUDY    10   3  74 NW14G23   30.06R WCI  -7
CARO           CLOUDY     9   5  85 W5        30.07R WCI   0
DETROIT CITY   CLEAR     11   3  70 W8        30.10R WCI  -1
DETROIT        PTCLDY    11   4  73 W10       30.11R WCI  -3
FLINT          PTCLDY     6   0  76 W10       30.09R WCI  -9
GROSSE ILE     CLEAR     10   7  85 W6        30.10R WCI   1
HILLSDALE      CLOUDY    12   6  76 NW7       30.09R WCI   2
HOWELL         MOCLDY     7   3  85 NW6       30.08R WCI  -3

CITY           SKY/WX    TMP DP  RH WIND       PRES   REMARKS
JACKSON        CLEAR     11   5  77 W7        30.10R WCI   0
LAMBERTVILLE   CLOUDY    13   5  73 W3        30.13R
LANSING        PTCLDY    11   3  70 W8        30.11R WCI  -1
LAPEER         CLOUDY     9   5  85 W6        30.06R WCI  -1
MASON          CLEAR     12   5  74 W5        30.10R WCI   4
MONROE         CLOUDY    13   6  74 W7        30.12R WCI   2
MT. CLEMENS    MOCLDY    10   3  72 W7        30.07R WCI  -1
PONTIAC        MOCLDY     8   4  83 W12       30.05R WCI  -7
PORT HOPE        N/A     12   4  70 NW21G32   30.03R WCI  -7
PORT HURON     CLEAR      7   0  72 W5        30.07R WCI  -2
TRI CITIES     MOCLDY    13   4  67 NW10      30.10R WCI   0
MIDLAND        CLOUDY    12   5  73 NW7       30.09R WCI   1
TROY           CLEAR     12   7  78 W8        30.10R WCI   1
SAGINAW HB     PTCLDY    10   5  79 W8        30.09R WCI  -1
$$
MIZ043>046-050>051-056>058-064>065-071>073-077>080-111200-
SOUTHWEST LOWER MICHIGAN

CITY           SKY/WX    TMP DP  RH WIND       PRES   REMARKS
BATTLE CREEK   PTCLDY     9   6  88 W8        30.12R WCI  -3
BENTON HARBOR  CLOUDY    19   6  57 VRB6G20   30.17R WCI  11
BIG RAPIDS     FLURRIES  11   8  87 W6        30.08R WCI   1
COLDWATER      CLOUDY    14  10  83 W3        30.12R
FREMONT        CLOUDY    14   9  81 W6        30.13R WCI   5
HOLLAND        LGT SNOW  15  10  80 VRB5      30.16R VSB 1   WCI   8
GRAND RAPIDS   MOCLDY    15   6  67 NW8       30.13R WCI   4
IONIA          CLOUDY    14   6  69 NW9       30.11R WCI   2
KALAMAZOO      CLOUDY    14   7  73 NW7       30.13R WCI   4
LUDINGTON      CLOUDY    16   4  61 NW9G17    30.15R WCI   4
MARSHALL       CLEAR      9   5  86 W5        30.11R WCI   0
MOUNT PLEASANT CLEAR     11   5  74 W8        30.08R WCI   0
MUSKEGON       FLURRIES  16   5  62 NW6       30.16R WCI   7
SOUTH HAVEN    FLURRIES  18   9  68 NW10G17   30.15R WCI   6
$$
MIZ016>042-111200-
NORTHERN LOWER MICHIGAN

CITY           SKY/WX    TMP DP  RH WIND       PRES   REMARKS
ALPENA         CLOUDY     6  -2  69 NW14G21   30.06R WCI -11
BEAVER ISLAND  CLOUDY    10   3  75 N9        30.12R WCI  -4
BELLAIRE       CLOUDY     7   4  88 CALM      30.11R
CADILLAC       LGT SNOW  11   6  81 W7        30.02R WCI   0
CHARLEVOIX     MOCLDY    13   5  70 N21G26    30.12R WCI  -6
FRANKFORT      FLURRIES  16   7  67 NW9G17    30.13R WCI   5
GAYLORD        FLURRIES   4  -1  80 VRB3      30.01R
GRAYLING       PTCLDY   -10 -15  76 CALM      30.04R
HARBOR SPRINGS MOCLDY     4  -1  79 CALM      30.09R
HOUGHTON LAKE  MOCLDY     5   1  83 CALM      30.05R
MANISTEE       CLOUDY    16   5  62 NW15G22   30.13R WCI   1
OSCODA         PTCLDY    -3  -6  83 W7        30.07R WCI -16
PELLSTON       MOCLDY     4  -2  76 N6        30.11R WCI  -7
ROGERS CITY    LGT SNOW   6   1  80 NW12G25   30.09R WCI -10
TRAVERSE CITY  LGT SNOW  16   7  67 NW16G23   30.09R WCI   1
$$
MIZ007>008-015-111200-
EASTERN UPPER MICHIGAN

CITY           SKY/WX    TMP DP  RH WIND       PRES   REMARKS
KINROSS        CLOUDY    -4  -9  77 N6        30.10R WCI -16
MACKINAC ISLAN CLOUDY     1  -3  83 NE6       30.10R WCI -11
NEWBERRY       CLOUDY     5   1  84 NW6       30.09R WCI  -6
S. S. MARIE    PTCLDY    -7 -17  62 N8        30.11R WCI -23
MUNISING         N/A     13   3  64 N16       30.12R WCI  -3
$$
MIZ004>006-011>014-085-111200-
CENTRAL UPPER MICHIGAN

CITY           SKY/WX    TMP DP  RH WIND       PRES   REMARKS
MANISTIQUE     LGT SNOW   3   0  86 CALM      30.12R
ESCANABA       CLEAR      7  -2  66 NW8       30.16R WCI  -6
MENOMINEE      CLEAR      3  -4  72 NW3       30.19R
SAWYER-GWINN   CLOUDY     6   0  78 NW15      30.09R WCI -12
$$
MIZ001>003-009>011-084-111200-
WESTERN UPPER MICHIGAN

CITY           SKY/WX    TMP DP  RH WIND       PRES   REMARKS
IRON MOUNTAIN  CLOUDY     6  -3  66 NW12      30.14R WCI  -9
HOUGHTON       LGT SNOW   7   1  76 NW14      30.14R WCI -10
COPPER HARBOR    N/A     11   5  77 N17G26    30.16R WCI  -6
IRONWOOD       CLOUDY     3   1  92 SW9       30.17R WCI -11
$$

ABBREVIATIONS USED IN REMARKS
   TC - TEMPERATURE IN CELSIUS
  WCI - WIND CHILL INDEX
   HX - HEAT INDEX
  VSB - VISIBILITY





USA.gov is the U.S. government's official web portal to all federal, state and local government web resources and services.